Find Starlink 31631

NORAD ID: 59459 Int'l Des: 2024-068 Owner: SPXS Country: US Constellation: starlink operational
LEOCIRCULAR

リアルタイム位置

3D地球を読み込み中...

Starlink 31631について

説明を読み込み中...

次回通過

Passes for default location (London). Set your location on the main map for personalized predictions.

高度履歴

Loading altitude history...

軌道要素

1 59459U 24068E 26124.57913333 .00000032 00000-0 10697-4 0 9993
2 59459 43.0037 75.1383 0000897 276.5351 83.5398 15.27571716117110
Epoch: May 4, 2026 • Age: 14 hours

現在のステータス

高度 482.3 km
速度 7.63 km/s
衛星直下点 16.33°N, 165.02°E
打ち上げ日 Apr 10, 2024
運用期間 2 years
タイプ internet

技術仕様

分類 Payload
質量 730.00 kg
乾燥質量 700.00 kg
総質量 730.00 kg
長さ 0.30 m
直径 4.10 m
スパン 29.00 m
形状 Box + pan
製造者 SPXS
バスタイプ Starlink V2M
フェーズステータス In Orbit
所有者/国 SPXS/US

Most Searched